Palma de Mallorca, Spain

5:36 AM CEST en Julio 21, 2018 (GMT +0200)
Palma De Mallorca

Tiempo Historia de LEPA - Abril, 2018

Change the Weather History Date:

Martes, Abril 17, 2018

  Actual Average Record
Temperature  
Temperatura media 58 ° F -  
Temperatura máxima 70 ° F 70 ° F 73 ° F (2016)
Temperatura mínima 46 ° F 50 ° F 41 ° F (2002)
Degree Days  
Grados día de calefacción 7    
Growing Degree Days 8 (Base 50)    
Moisture  
Punto de rocío 52 ° F    
Average Humidity 78    
Maximum Humidity 100    
Minimum Humidity 46    
Precipitación  
Precipitación 0.00 pul 0.04 pul - ()
Presión al nivel del mar  
Presión al nivel del mar 30.18 pul    
Viento  
Velocidad del viento 4 mph ()    
Velocidad máxima del viento 15 mph    
Max Gust Speed -    
Visibilidad 8.1 Millas    
Eventos      
Averages and records for this station are not official NWS values.
T = Trace of Precipitation, MM = Missing Value Source: Averaged Metar Reports

Daily Weather History Graph

Daily Weather History Graph

Search for Another Location

Airport or City:

Astronomía

Apr. 17, 2018 Salida Puesta
Hora real 7:09 AM CEST 8:28 PM CEST
Crepúsculo civil 6:41 AM CEST 8:56 PM CEST
Crepúsculo náutico 6:07 AM CEST 9:30 PM CEST
Crepúsculo astronómico 5:32 AM CEST 10:05 PM CEST
Luna 8:18 AM CEST (4/17) 10:07 PM CEST (4/17)
Horas de luz 14h 15m
Horas de luz
13h 19m
Luna nueva, 2% of the Moon is Illuminated
Abr 17
Luna nueva
Abr 22
Cuarto creciente
Abr 30
Luna llena
May 8
Cuarto menguante
May 15
Nueva

Hourly Weather History & Observations

Hora (CEST) Temp. Vientos helados Punto de rocío Humedad Presión Visibilidad Wind Dir Velocidad del viento Velocidad de ráfagas Precip Eventos Condiciones
12:00 AM 51.8 ° F - 50.0 ° F 94% 30.09 pul 6.2 mi Sin viento Sin viento - N/A   Parcialmente nublado
12:30 AM 51.8 ° F - 50.0 ° F 94% 30.09 pul 6.2 mi Sin viento Sin viento - N/A   Parcialmente nublado
1:00 AM 50 ° F - 48 ° F 92% 30.12 pul - NNE 1.2 mph - -  
1:00 AM 51.8 ° F - 50.0 ° F 94% 30.09 pul 6.2 mi Sin viento Sin viento - N/A   Parcialmente nublado
1:30 AM 50.0 ° F - 48.2 ° F 94% 30.09 pul 6.2 mi NE 2.3 mph - N/A   Parcialmente nublado
2:00 AM 49 ° F - 48 ° F 93% 30.12 pul 9 mi Este 2.3 mph - -   Nubes dispersas
2:00 AM 50.0 ° F - 48.2 ° F 94% 30.09 pul 6.2 mi Este 2.3 mph - N/A   Parcialmente nublado
2:30 AM 48.2 ° F - 48.2 ° F 100% 30.12 pul 6.2 mi ENE 5.8 mph - N/A   Parcialmente nublado
3:00 AM 49 ° F - 48 ° F 97% 30.13 pul - NO 2.3 mph - -  
3:00 AM 48.2 ° F - 48.2 ° F 100% 30.12 pul 6.2 mi Sin viento Sin viento - N/A   Parcialmente nublado
3:30 AM 50.0 ° F - 48.2 ° F 94% 30.12 pul 6.2 mi Variable 1.2 mph - N/A   Parcialmente nublado
4:00 AM 48 ° F - 47 ° F 95% 30.14 pul - Sin viento Sin viento - -  
4:00 AM 48.2 ° F - 48.2 ° F 100% 30.12 pul 6.2 mi Variable 1.2 mph - N/A   Parcialmente nublado
4:30 AM 48.2 ° F - 46.4 ° F 93% 30.12 pul 6.2 mi Sin viento Sin viento - N/A   Parcialmente nublado
5:00 AM 47 ° F - 47 ° F 98% 30.16 pul 9 mi ESE 1.2 mph - -   Nubes dispersas
5:00 AM 48.2 ° F - 48.2 ° F 100% 30.15 pul 6.2 mi Sin viento Sin viento - N/A   Parcialmente nublado
5:30 AM 48.2 ° F - 46.4 ° F 93% 30.12 pul 6.2 mi ESE 2.3 mph - N/A   Parcialmente nublado
6:00 AM 46 ° F - 44 ° F 92% 30.15 pul - NE 2.3 mph - -  
6:00 AM 46.4 ° F - 44.6 ° F 93% 30.12 pul 6.2 mi Variable 1.2 mph - N/A   Parcialmente nublado
6:30 AM 46.4 ° F 45.2 ° F 44.6 ° F 93% 30.15 pul - ENE 3.5 mph - N/A   Despejado
7:00 AM 46.4 ° F - 44.6 ° F 93% 30.15 pul - Norte 2.3 mph - N/A   Despejado
7:30 AM 46.4 ° F - 46.4 ° F 100% 30.15 pul - Variable 1.2 mph - N/A   Despejado
8:00 AM 50.0 ° F - 48.2 ° F 94% 30.15 pul - Variable 2.3 mph - N/A   Despejado
8:30 AM 51.8 ° F - 51.8 ° F 100% 30.18 pul - Sin viento Sin viento - N/A   Despejado
9:00 AM 56 ° F - 51 ° F 79% 30.20 pul 12 mi Este 1.2 mph - -   Despejado
9:00 AM 55.4 ° F - 51.8 ° F 88% 30.18 pul - Sin viento Sin viento - N/A   Despejado
9:30 AM 59.0 ° F - 53.6 ° F 82% 30.18 pul - Sin viento Sin viento - N/A   Despejado
10:00 AM 62 ° F - 53 ° F 64% 30.21 pul - Sin viento Sin viento - -  
10:00 AM 62.6 ° F - 53.6 ° F 72% 30.21 pul - Sin viento Sin viento - N/A   Despejado
10:30 AM 64.4 ° F - 53.6 ° F 68% 30.21 pul - Sin viento Sin viento - N/A   Despejado
11:00 AM 68 ° F - 52 ° F 46% 30.23 pul 19 mi Sin viento Sin viento - -   Despejado
11:00 AM 68.0 ° F - 55.4 ° F 64% 30.21 pul - Sin viento Sin viento - N/A   Despejado
11:30 AM 69.8 ° F - 51.8 ° F 53% 30.21 pul 6.2 mi NNO 1.2 mph - N/A   Parcialmente nublado
12:00 PM 66 ° F - 51 ° F 49% 30.24 pul - OSO 10.4 mph - -  
12:00 PM 66.2 ° F - 53.6 ° F 64% 30.21 pul 6.2 mi OSO 9.2 mph - N/A   Parcialmente nublado
12:30 PM 64.4 ° F - 55.4 ° F 73% 30.21 pul 6.2 mi SO 12.7 mph - N/A   Parcialmente nublado
1:00 PM 65 ° F - 53 ° F 56% 30.23 pul - SSO 15.0 mph - -  
1:00 PM 64.4 ° F - 55.4 ° F 73% 30.21 pul 6.2 mi SO 11.5 mph - N/A   Parcialmente nublado
1:30 PM 66.2 ° F - 55.4 ° F 68% 30.21 pul 6.2 mi SSO 11.5 mph - N/A   Parcialmente nublado
2:00 PM 66 ° F - 52 ° F 52% 30.23 pul 19 mi SSO 13.8 mph - -   Nubes dispersas
2:00 PM 66.2 ° F - 53.6 ° F 64% 30.21 pul 6.2 mi SO 11.5 mph - N/A   Parcialmente nublado
2:30 PM 66.2 ° F - 55.4 ° F 68% 30.21 pul 6.2 mi SO 12.7 mph - N/A   Parcialmente nublado
3:00 PM 66 ° F - 54 ° F 56% 30.23 pul 19 mi SSO 15.0 mph - -   Nubes dispersas
3:00 PM 66.2 ° F - 55.4 ° F 68% 30.21 pul 6.2 mi SO 13.8 mph - N/A   Parcialmente nublado
3:30 PM 66.2 ° F - 55.4 ° F 68% 30.21 pul 6.2 mi SO 12.7 mph - N/A   Parcialmente nublado
4:00 PM 67 ° F - 55 ° F 55% 30.22 pul - SO 11.5 mph - -  
4:00 PM 66.2 ° F - 55.4 ° F 68% 30.21 pul 6.2 mi SO 11.5 mph - N/A   Parcialmente nublado
4:30 PM 66.2 ° F - 55.4 ° F 68% 30.21 pul 6.2 mi SSO 11.5 mph - N/A   Parcialmente nublado
5:00 PM 67 ° F - 55 ° F 55% 30.21 pul 19 mi SO 13.8 mph - -   Nubes dispersas
5:00 PM 66.2 ° F - 55.4 ° F 68% 30.18 pul 6.2 mi SSO 10.4 mph - N/A   Parcialmente nublado
5:30 PM 66.2 ° F - 57.2 ° F 73% 30.21 pul 6.2 mi SSO 11.5 mph - N/A   Parcialmente nublado
6:00 PM 67 ° F - 54 ° F 54% 30.21 pul - SO 12.7 mph - -  
6:00 PM 66.2 ° F - 55.4 ° F 68% 30.21 pul 6.2 mi SSO 10.4 mph - N/A   Parcialmente nublado
6:30 PM 66.2 ° F - 55.4 ° F 68% 30.21 pul 6.2 mi SSO 9.2 mph - N/A   Parcialmente nublado
7:00 PM 66 ° F - 55 ° F 60% 30.22 pul - SSO 8.1 mph - -  
7:00 PM 66.2 ° F - 55.4 ° F 68% 30.21 pul 6.2 mi SSO 6.9 mph - N/A   Parcialmente nublado
7:30 PM 66.2 ° F - 53.6 ° F 64% 30.21 pul 6.2 mi SSO 5.8 mph - N/A   Parcialmente nublado
8:00 PM 64 ° F - 55 ° F 64% 30.22 pul 19 mi SSO 9.2 mph - -   Nubes dispersas
8:00 PM 64.4 ° F - 55.4 ° F 73% 30.21 pul 6.2 mi SSO 6.9 mph - N/A   Parcialmente nublado
8:30 PM 62.6 ° F - 55.4 ° F 77% 30.21 pul - Sur 4.6 mph - N/A   Despejado
9:00 PM 61 ° F - 55 ° F 75% 30.23 pul - Sur 5.8 mph - -  
9:00 PM 62.6 ° F - 55.4 ° F 77% 30.21 pul - Variable 2.3 mph - N/A   Despejado
9:30 PM 60.8 ° F - 55.4 ° F 82% 30.24 pul - SSE 2.3 mph - N/A   Despejado
10:00 PM 59 ° F - 53 ° F 74% 30.25 pul - SE 3.5 mph - -  
10:00 PM 60.8 ° F - 55.4 ° F 82% 30.24 pul - SE 1.2 mph - N/A   Despejado
10:30 PM 57.2 ° F - 51.8 ° F 82% 30.24 pul - Variable 1.2 mph - N/A   Despejado
11:00 PM 55.4 ° F - 51.8 ° F 88% 30.24 pul - ENE 4.6 mph - N/A   Despejado
11:30 PM 53.6 ° F - 51.8 ° F 94% 30.24 pul - ENE 2.3 mph - N/A   Despejado